Latham, NY

11:02 AM EST on January 21, 2017 (GMT -0500)
Albany International Airport

Weather History for KALB - May, 2014

Change the Weather History Date:

Friday, May 16, 2014

  Actual Average Record
Temperature  
Mean Temperature 61 °F 58 °F  
Max Temperature 74 °F 70 °F 89 °F (1991)
Min Temperature 48 °F 47 °F 33 °F (1980)
Degree Days  
Heating Degree Days 4 7  
Month to date heating degree days 98 151  
Since 1 July heating degree days 6887 6544  
Cooling Degree Days 0 1  
Month to date cooling degree days 15 5  
Year to date cooling degree days 21 9  
Growing Degree Days 12 (Base 50)    
Moisture  
Dew Point 60 °F    
Average Humidity 76    
Maximum Humidity 87    
Minimum Humidity 64    
Precipitation  
Precipitation 0.90 in 0.12 in 1.34 in (1972)
Month to date precipitation 1.62 1.75  
Year to date precipitation 12.57 12.92  
Snow  
Snow 0.00 in 0.00 in 0.00 in ()
Month to date snowfall 0.0 0.1  
Since 1 July snowfall 73.5 60.3  
Snow Depth 0.00 in    
Sea Level Pressure  
Sea Level Pressure 29.91 in    
Wind  
Wind Speed 13 mph (SSE)    
Max Wind Speed 29 mph    
Max Gust Speed 38 mph    
Visibility 8 miles    
Events Rain    
T = Trace of Precipitation, MM = Missing Value Source: NWS Daily Summary

Daily Weather History Graph

Daily Weather History Graph

Search for Another Location

Airport or City:

Trip Planner

Search our weather history database for the weather conditions in past years. The results will help you decide how hot, cold, wet, or windy it might be!

Date:

Astronomy

May. 16, 2014 Rise Set
Actual Time 5:31 AM EDT 8:12 PM EDT
Civil Twilight 4:59 AM EDT 8:44 PM EDT
Nautical Twilight 4:18 AM EDT 9:25 PM EDT
Astronomical Twilight 3:31 AM EDT 10:12 PM EDT
Moon 10:16 PM EDT (5/16) 7:10 AM EDT (5/16)
Length of Visible Light 15h 45m
Length of Day
14h 40m
Waning Gibbous, 95% of the Moon is Illuminated
May 16
Waning Gibbous
May 21
Last Quarter
May 28
New
Jun 5
First Quarter
Jun 13
Full

Hourly Weather History & Observations

Time (EDT) Temp. Dew Point Humidity Pressure Visibility Wind Dir Wind Speed Gust Speed Precip Events Conditions
12:51 AM 70.0 °F 62.1 °F 76% 30.04 in 10.0 mi South 13.8 mph 24.2 mph N/A   Overcast
1:05 AM 70.0 °F 63.0 °F 78% 30.03 in 10.0 mi South 10.4 mph 20.7 mph N/A   Overcast
1:51 AM 70.0 °F 62.1 °F 76% 30.01 in 10.0 mi SSE 10.4 mph 25.3 mph N/A   Overcast
2:12 AM 70.0 °F 62.1 °F 76% 30.01 in 10.0 mi SSE 13.8 mph 26.5 mph N/A   Overcast
2:26 AM 70.0 °F 62.1 °F 76% 30.01 in 10.0 mi SSE 17.3 mph 23.0 mph N/A   Overcast
2:44 AM 70.0 °F 61.0 °F 73% 30.00 in 10.0 mi South 13.8 mph 26.5 mph N/A   Overcast
2:51 AM 70.0 °F 61.0 °F 73% 30.00 in 10.0 mi South 15.0 mph 29.9 mph N/A   Overcast
3:51 AM 70.0 °F 61.0 °F 73% 29.99 in 10.0 mi SSE 13.8 mph - N/A   Overcast
4:11 AM 69.1 °F 61.0 °F 75% 29.98 in 10.0 mi SSE 15.0 mph - N/A   Overcast
4:51 AM 69.1 °F 61.0 °F 75% 29.96 in 10.0 mi SSE 11.5 mph 19.6 mph 0.00 in   Light Drizzle
5:51 AM 69.1 °F 61.0 °F 75% 29.95 in 10.0 mi SE 10.4 mph - 0.00 in Rain Light Rain
6:19 AM 66.9 °F 61.0 °F 81% 29.95 in 1.5 mi SSE 10.4 mph 20.7 mph 0.02 in Rain Rain
6:25 AM 66.9 °F 61.0 °F 81% 29.95 in 3.0 mi SSE 12.7 mph 20.7 mph 0.02 in Rain Light Rain
6:31 AM 66.9 °F 62.1 °F 84% 29.96 in 1.5 mi SSE 9.2 mph 19.6 mph 0.03 in Rain Light Rain
6:51 AM 66.0 °F 62.1 °F 87% 29.96 in 2.0 mi SE 6.9 mph - 0.06 in Rain Light Rain
7:24 AM 66.0 °F 62.1 °F 87% 29.95 in 10.0 mi SE 8.1 mph - 0.01 in   Overcast
7:51 AM 66.0 °F 62.1 °F 87% 29.94 in 9.0 mi SE 6.9 mph - 0.01 in   Overcast
8:51 AM 66.9 °F 62.1 °F 84% 29.93 in 8.0 mi SSE 8.1 mph - 0.00 in   Light Drizzle
9:51 AM 69.1 °F 62.1 °F 78% 29.92 in 10.0 mi SSE 11.5 mph 20.7 mph 0.00 in   Overcast
10:51 AM 71.6 °F 62.6 °F 73% 29.91 in 10.0 mi SSE 15.0 mph 26.5 mph N/A   Overcast
11:24 AM 72.0 °F 62.1 °F 71% 29.90 in 10.0 mi SSE 16.1 mph 24.2 mph N/A   Overcast
11:51 AM 72.0 °F 62.1 °F 71% 29.89 in 10.0 mi SSE 17.3 mph 34.5 mph N/A   Overcast
11:57 AM 72.0 °F 61.0 °F 68% 29.89 in 10.0 mi SSE 17.3 mph 34.5 mph N/A   Overcast
12:51 PM 73.0 °F 61.0 °F 66% 29.89 in 10.0 mi South 24.2 mph 38.0 mph N/A   Overcast
1:51 PM 73.0 °F 61.0 °F 66% 29.87 in 10.0 mi SSE 19.6 mph 32.2 mph N/A   Overcast
2:51 PM 73.0 °F 61.0 °F 66% 29.86 in 10.0 mi SSE 13.8 mph 29.9 mph 0.00 in Rain Light Rain
3:51 PM 71.6 °F 62.6 °F 73% 29.85 in 8.0 mi SSE 13.8 mph 28.8 mph N/A Rain Light Rain
4:27 PM 70.0 °F 63.0 °F 78% 29.85 in 7.0 mi South 9.2 mph 20.7 mph 0.02 in Rain Light Rain
4:51 PM 71.6 °F 62.6 °F 73% 29.85 in 10.0 mi SSE 10.4 mph - N/A Rain Light Rain
5:48 PM 69.8 °F 62.6 °F 78% 29.82 in 10.0 mi SSE 13.8 mph 20.7 mph 0.00 in   Overcast
5:51 PM 70.0 °F 63.0 °F 78% 29.82 in 10.0 mi SSE 13.8 mph 19.6 mph 0.00 in   Overcast
5:56 PM 70.0 °F 63.0 °F 78% 29.83 in 10.0 mi SSE 11.5 mph 19.6 mph 0.00 in Rain Light Rain
6:24 PM 70.0 °F 63.0 °F 78% 29.82 in 10.0 mi SSE 11.5 mph - 0.00 in   Overcast
6:51 PM 70.0 °F 63.0 °F 78% 29.81 in 10.0 mi SE 12.7 mph - 0.00 in   Overcast
7:51 PM 70.0 °F 62.1 °F 76% 29.81 in 10.0 mi SSE 15.0 mph 21.9 mph 0.00 in Rain Light Rain
8:24 PM 71.1 °F 62.1 °F 73% 29.80 in 10.0 mi SSE 16.1 mph 25.3 mph 0.00 in   Overcast
8:51 PM 71.1 °F 63.0 °F 75% 29.81 in 10.0 mi SSE 12.7 mph 26.5 mph 0.00 in   Overcast
9:47 PM 62.6 °F 57.2 °F 82% 29.86 in 10.0 mi West 20.7 mph 34.5 mph 0.02 in Rain Light Rain
9:51 PM 55.9 °F 52.0 °F 87% 29.86 in 9.0 mi West 18.4 mph 34.5 mph 0.02 in Rain Light Rain
9:54 PM 55.0 °F 51.1 °F 86% 29.86 in 10.0 mi West 16.1 mph 24.2 mph 0.00 in   Overcast
10:04 PM 53.1 °F 50.0 °F 89% 29.87 in 10.0 mi WSW 13.8 mph 28.8 mph 0.00 in   Overcast
10:46 PM 51.8 °F 48.2 °F 88% 29.89 in 2.0 mi West 13.8 mph 24.2 mph 0.02 in Rain Heavy Rain
10:51 PM 51.8 °F 48.2 °F 88% 29.88 in 1.5 mi WNW 15.0 mph 24.2 mph N/A Rain Heavy Rain
10:58 PM 51.1 °F 48.0 °F 89% 29.88 in 2.5 mi West 13.8 mph - 0.08 in Rain Heavy Rain
11:27 PM 50.0 °F 46.9 °F 89% 29.89 in 5.0 mi WNW 12.7 mph 21.9 mph 0.15 in Rain Light Rain
11:51 PM 50.0 °F 46.9 °F 89% 29.87 in 6.0 mi NW 9.2 mph - 0.18 in Rain Light Rain